User: anonymous   Login
Location: Muenchen
(48.1800°N, 11.5800°E)
Time: 05:02:42
(UTC+01:00)
Language:

Cosmos 2233 Rocket - Orbit

View from above orbital plane
View from above orbital plane
View from above satellite
View from above satellite

Ground track
Ground track

The orbit data is extracted from the following two-line orbital elements,

1 22488U 93008B   17327.54933248 +.00000119 +00000-0 +10343-3 0  9997
2 22488 082.9406 319.8376 0026382 136.2909 341.2234 13.77725464245919
Epoch (UTC): 23 November 2017 13:11:02
Eccentricity: 0.0026382
inclination: 82.9406°
perigee height: 952 km
apogee height: 991 km
right ascension of ascending node: 319.8376°
argument of perigee: 136.2909°
revolutions per day: 13.77725464
mean anomaly at epoch: 341.2234°
orbit number at epoch: 24591

The dashed part of the orbit path shows where the satellite is in the earth's shadow,  

DLR